User: anonymous   Login
Location: Appeville
(49.3218°N, 1.3427°W)
Time: 00:25:30
(UTC+00:00)
Language:

ATLAS 5 CENTAUR R/B - Orbit

View from above orbital plane
View from above orbital plane
View from above satellite
View from above satellite

Ground track
Ground track

The orbit data is extracted from the following two-line orbital elements,

1 31702U 07027B   20040.77372630 0.00000000  00000-0  00000-0 0    03
2 31702  63.3560 280.4612 0386946  14.0430 345.9570 14.18755673    09
Epoch (UTC): 09 February 2020 18:34:09
Eccentricity: 0.0386946
inclination: 63.3560°
perigee height: 550 km
apogee height: 1108 km
right ascension of ascending node: 280.4612°
argument of perigee: 14.0430°
revolutions per day: 14.18755673
mean anomaly at epoch: 345.9570°
orbit number at epoch: 0

The dashed part of the orbit path shows where the satellite is in the earth's shadow,  

DLR